User: anonymous   Login
Location: Unspecified
(0.0000°N, 0.0000°E)
Time: 20:05:23
(UTC+00:00)
Language:

STARLINK-34423 - Orbit

View from above orbital plane
View from above orbital plane
View from above satellite
View from above satellite

Ground track
Ground track

The orbit is defined by the following mean orbital elements,

1 64460U          26145.54250314 +.00000000 +00000-0 +39179-3 0 00007
2 64460  53.1564  91.2675 0001268  89.2129 270.9017 15.30205249    01
Epoch (UTC): 25 May 2026 13:01:12
Eccentricity: 0.0001268
inclination: 53.1564°
perigee height: 474 km
apogee height: 476 km
right ascension of ascending node: 91.2675°
argument of perigee: 89.2129°
revolutions per day: 15.30205249
mean anomaly at epoch: 270.9017°

The dashed part of the orbit path shows where the satellite is in the earth's shadow,  

DLR